Miscellaneous Local Product
Issued by NWS North Platte, NE

Home | Current Version | Previous Version | Graphics & Text | Print | Product List | Glossary On
Versions: 1 2 3 4 5 6 7 8 9 10 11 12 13 14 15 16 17 18 19 20 21 22 23 24 25 26 27 28 29 30 31 32 33 34 35 36 37 38 39 40 41 42 43 44 45 46 47 48 49 50
000
AXUS43 KLBF 251010
MISLBF


WESTERN AND NORTH CENTRAL NEBRASKA HOURLY WEATHER ROUNDUP
NATIONAL WEATHER SERVICE NORTH PLATTE NE
500 AM CDT SAT APR 25 2015

***STATIONS NOT REPORTING VARIABLES SUCH AS SKY/WEATHER OR
PRESSURE ARE PROVIDED BY THE NEBRASKA DEPARTMENT OF
ROADS...RAWS...AND APRS NETWORKS...AND ARE NOT UNDER
NATIONAL WEATHER SERVICE QUALITY CONTROL***

...OBSERVATIONS IN AND NEAR THE EASTERN PANHANDLE OF NEBRASKA...

CITY           SKY/WX    TMP DP  RH WIND       PRES   REMARKS
PINE RIDGE     MOCLDY    42  41  96 SW7       29.65R
CHADRON        PTCLDY    37  35  92 SW6       29.65S WCI  32
ALLIANCE       MOCLDY    40  38  93 W6        29.65R
SIDNEY         CLEAR     40  37  89 NW9       29.67R WCI  34
$$

...OBSERVATIONS IN NORTH CENTRAL NEBRASKA...

CITY           SKY/WX    TMP DP  RH WIND       PRES   REMARKS
VALENTINE      CLOUDY    51  48  89 W5        29.59F
THEDFORD       MOCLDY    50  47  92 W6        29.59R
AINSWORTH      PTCLDY    48  46  91 W8        29.58S
O`NEILL        CLOUDY    55  54  97 NE7       29.55R FOG
ORD            CLOUDY    54  52  93 NE3       29.49S
BROKEN BOW     MOCLDY    49  45  86 W7        29.53R
$$

...OBSERVATIONS IN SOUTHWEST NEBRASKA AND FAR NORTHEAST COLORADO...

CITY           SKY/WX    TMP DP  RH WIND       PRES   REMARKS
WRAY           FAIR      45  40  85 W8        29.64S
HOLYOKE        FAIR      46  41  81 NW10      29.63S
IMPERIAL       MOCLDY    48  41  76 NW12      29.60R
OGALLALA       MOCLDY    46  43  91 CALM      29.61S
MCCOOK         CLOUDY    51  46  83 W8        29.55R
LEXINGTON      MOCLDY    51  49  95 W8        29.54R
$$

...NORTH PLATTE AREA...

CITY           SKY/WX    TMP DP  RH WIND       PRES   REMARKS
$$

...SOME WEATHER OBSERVATIONS FROM AROUND THE REGION...

CITY           SKY/WX    TMP DP  RH WIND       PRES   REMARKS
DENVER         CLEAR     44  27  51 S10       29.71R
LARAMIE        PTCLDY    34  28  79 S5        29.77R WCI  30
CHEYENNE       PTCLDY    46  29  51 NW10      29.73R
SCOTTSBLUFF    CLEAR     41  39  93 NW8       29.67R
RAPID CITY     PTCLDY    42  37  82 N12       29.65S
PIERRE         LGT RAIN  48  46  93 E14       29.63R FOG
WINNER         FAIR      49  45  86 E10       29.59R
SIOUX FALLS    CLOUDY    46  43  89 E14       29.61F
OMAHA          LGT RAIN  53  51  93 E13G18    29.47R
GRAND ISLAND   LGT RAIN  54  53  97 NE12      29.50R FOG
KANSAS CITY    LGT RAIN  56  55  97 SE14      29.39F
WICHITA        MOCLDY    57  53  86 W9        29.47R
HAYS           CLOUDY    52  45  76 W7        29.49F
LIBERAL        CLEAR     46  37  71 CALM      29.66R
GOODLAND       MOCLDY    46  41  82 W7        29.63S
$$



USA.gov is the U.S. government's official web portal to all federal, state and local government web resources and services.